OCN3PR EDDM-GCTS

Flight info

Callsign OCN3PR
Flight time N/A
Altitude 34000
Route N0443F340 ALG Y109 UMTEX Y100 TRA N0445F350 DCT LUTIX DCT BENOT N0447F370 DCT NEMOS DCT NINTU DCT MEBAK DCT REPSI DCT LERGA DCT MINSO DCT NARAK DCT AGN DCT MAQAB DCT TIVLI DCT ELSAP DCT ZAR DCT KONKE DCT TERSA DCT CJN DCT VTB DCT INPAN DCT CRISA DCT HIJ DCT SVL DCT CLANA DCT KORNO N0441F390 UN857 TERTO
Aircraft A320/M-SDE2E3FGIJ1LORWXYZ/HB1

Departure

Time 2026-05-07 10:01
Airport Munich Airport (EDDM)

Arrival

Time N/A
Airport Tenerife Sur Airport (GCTS)
Time Latitude Longitude Altitude Speed Heading
2026-05-07 09:35 48.35411 11.79305 1468 ft 0 kts 271°
2026-05-07 09:36 48.35411 11.79319 1473 ft 0 kts 270°
2026-05-07 09:38 48.35457 11.79311 1486 ft 0 kts 263°
2026-05-07 09:53 48.35458 11.79318 1485 ft 2 kts 263°
2026-05-07 09:53 48.35460 11.79346 1473 ft 3 kts 263°
2026-05-07 09:53 48.35462 11.79376 1476 ft 3 kts 263°
2026-05-07 09:53 48.35464 11.79405 1477 ft 3 kts 253°
2026-05-07 09:54 48.35473 11.79431 1484 ft 3 kts 222°
2026-05-07 09:54 48.35489 11.79446 1481 ft 3 kts 184°
2026-05-07 09:54 48.35500 11.79446 1484 ft 2 kts 173°
2026-05-07 09:54 48.35514 11.79444 1475 ft 1 kts 173°
2026-05-07 09:55 48.35516 11.79443 1475 ft 0 kts 173°
2026-05-07 09:56 48.35509 11.79445 1480 ft 5 kts 173°
2026-05-07 09:56 48.35427 11.79459 1481 ft 17 kts 173°
2026-05-07 09:57 48.35313 11.79478 1483 ft 14 kts 173°
2026-05-07 09:57 48.35233 11.79493 1481 ft 9 kts 173°
2026-05-07 09:57 48.35166 11.79505 1481 ft 12 kts 174°
2026-05-07 09:57 48.35063 11.79521 1478 ft 16 kts 174°
2026-05-07 09:58 48.34960 11.79539 1479 ft 13 kts 173°
2026-05-07 09:58 48.34883 11.79553 1484 ft 9 kts 174°
2026-05-07 09:58 48.34812 11.79586 1481 ft 17 kts 137°
2026-05-07 09:58 48.34811 11.79810 1481 ft 23 kts 83°
2026-05-07 09:59 48.34828 11.80037 1479 ft 21 kts 83°
2026-05-07 09:59 48.34805 11.80187 1478 ft 13 kts 134°
2026-05-07 09:59 48.34744 11.80238 1483 ft 3 kts 169°
2026-05-07 09:59 48.34702 11.80247 1483 ft 11 kts 172°
2026-05-07 10:00 48.34591 11.80269 1483 ft 20 kts 173°
2026-05-07 10:00 48.34480 11.80266 1480 ft 12 kts 217°
2026-05-07 10:00 48.34450 11.80061 1472 ft 44 kts 263°
2026-05-07 10:00 48.34393 11.79301 1481 ft 102 kts 263°
2026-05-07 10:01 48.34292 11.77996 1475 ft 148 kts 263°
2026-05-07 10:01 48.34177 11.76295 1709 ft 171 kts 265°
2026-05-07 10:01 48.34057 11.74476 2417 ft 177 kts 266°
2026-05-07 10:01 48.33912 11.72645 3153 ft 177 kts 263°
2026-05-07 10:02 48.33753 11.70726 3606 ft 195 kts 264°
2026-05-07 10:02 48.33585 11.68610 3956 ft 212 kts 263°
2026-05-07 10:02 48.33409 11.66375 4672 ft 216 kts 263°
2026-05-07 10:02 48.33233 11.64137 5409 ft 225 kts 263°
2026-05-07 10:03 48.33053 11.61686 5756 ft 245 kts 264°
2026-05-07 10:03 48.32872 11.59096 6422 ft 253 kts 263°
2026-05-07 10:03 48.32684 11.56446 7129 ft 257 kts 263°
2026-05-07 10:03 48.32465 11.53769 7951 ft 260 kts 257°
2026-05-07 10:04 48.31894 11.51179 8791 ft 263 kts 250°
2026-05-07 10:04 48.31261 11.48581 9598 ft 266 kts 250°
2026-05-07 10:04 48.30625 11.45990 10243 ft 272 kts 250°
2026-05-07 10:04 48.29942 11.43214 10422 ft 294 kts 250°
2026-05-07 10:05 48.29207 11.40221 10587 ft 316 kts 250°
2026-05-07 10:05 48.28434 11.37069 11065 ft 324 kts 250°
2026-05-07 10:05 48.27651 11.33877 11712 ft 328 kts 250°
2026-05-07 10:05 48.26856 11.30649 12347 ft 331 kts 249°
2026-05-07 10:06 48.26052 11.27390 12971 ft 334 kts 249°
2026-05-07 10:06 48.25254 11.24151 13592 ft 337 kts 249°
2026-05-07 10:06 48.24434 11.20834 14175 ft 340 kts 249°
2026-05-07 10:06 48.23604 11.17492 14728 ft 343 kts 249°
2026-05-07 10:07 48.22763 11.14121 15282 ft 347 kts 249°
2026-05-07 10:07 48.21915 11.10723 15822 ft 350 kts 249°
2026-05-07 10:07 48.21061 11.07294 16370 ft 353 kts 249°
2026-05-07 10:07 48.20210 11.03867 16894 ft 356 kts 249°
2026-05-07 10:08 48.19340 11.00379 17431 ft 358 kts 249°
2026-05-07 10:08 48.18459 10.96871 17953 ft 361 kts 249°
2026-05-07 10:08 48.17570 10.93334 18431 ft 365 kts 249°
2026-05-07 10:08 48.16672 10.89759 18885 ft 368 kts 249°
2026-05-07 10:09 48.15781 10.86212 19307 ft 371 kts 249°
2026-05-07 10:09 48.14867 10.82589 19737 ft 373 kts 249°
2026-05-07 10:09 48.13945 10.78939 20169 ft 376 kts 249°
2026-05-07 10:09 48.13014 10.75263 20600 ft 379 kts 249°
2026-05-07 10:10 48.12076 10.71566 21023 ft 382 kts 249°
2026-05-07 10:10 48.11588 10.69642 21237 ft 383 kts 249°
2026-05-07 10:10 48.10635 10.65907 21637 ft 386 kts 249°
2026-05-07 10:10 48.09678 10.62141 22042 ft 388 kts 249°
2026-05-07 10:11 48.08725 10.58393 22432 ft 391 kts 249°
2026-05-07 10:11 48.07754 10.54575 22824 ft 394 kts 249°
2026-05-07 10:11 48.06774 10.50735 23229 ft 396 kts 249°
2026-05-07 10:11 48.05787 10.46877 23592 ft 399 kts 249°
2026-05-07 10:12 48.04791 10.42997 23915 ft 401 kts 249°
2026-05-07 10:12 48.03791 10.39094 24246 ft 403 kts 249°
2026-05-07 10:12 48.02802 10.35230 24564 ft 405 kts 249°
2026-05-07 10:12 48.01824 10.31425 24877 ft 407 kts 249°
2026-05-07 10:13 48.00804 10.27471 25199 ft 409 kts 249°
2026-05-07 10:13 47.99778 10.23507 25505 ft 411 kts 249°
2026-05-07 10:13 47.98747 10.19523 25817 ft 413 kts 249°
2026-05-07 10:13 47.97708 10.15518 26114 ft 415 kts 249°
2026-05-07 10:14 47.96661 10.11496 26412 ft 416 kts 249°
2026-05-07 10:14 47.95609 10.07465 26721 ft 418 kts 249°
2026-05-07 10:14 47.94908 10.04776 26900 ft 420 kts 249°
2026-05-07 10:14 47.93502 9.99392 27288 ft 422 kts 249°
2026-05-07 10:15 47.92432 9.95303 27592 ft 424 kts 249°
2026-05-07 10:15 47.91491 9.91711 27861 ft 426 kts 249°
2026-05-07 10:15 47.90409 9.87587 28141 ft 428 kts 249°
2026-05-07 10:15 47.89691 9.84852 28318 ft 429 kts 249°
2026-05-07 10:16 47.88600 9.80702 28578 ft 431 kts 249°
2026-05-07 10:16 47.87138 9.75176 28916 ft 433 kts 249°
2026-05-07 10:16 47.86028 9.70998 29159 ft 435 kts 249°
2026-05-07 10:16 47.85292 9.68226 29324 ft 436 kts 249°
2026-05-07 10:17 47.84177 9.64025 29565 ft 437 kts 249°
2026-05-07 10:17 47.83047 9.59813 29833 ft 439 kts 248°
2026-05-07 10:17 47.81491 9.54255 30217 ft 439 kts 247°
2026-05-07 10:17 47.80283 9.50074 30536 ft 438 kts 246°
2026-05-07 10:18 47.79480 9.47325 30740 ft 437 kts 246°
2026-05-07 10:18 47.78271 9.43194 31062 ft 435 kts 246°
2026-05-07 10:18 47.77068 9.39071 31377 ft 434 kts 246°
2026-05-07 10:18 47.75877 9.34959 31692 ft 432 kts 246°
2026-05-07 10:19 47.74697 9.30867 32012 ft 431 kts 246°
2026-05-07 10:19 47.73139 9.25452 32439 ft 429 kts 246°
2026-05-07 10:19 47.72349 9.22712 32651 ft 428 kts 246°
2026-05-07 10:19 47.70799 9.17352 33063 ft 426 kts 246°
2026-05-07 10:20 47.70007 9.14625 33256 ft 425 kts 246°
2026-05-07 10:20 47.68458 9.09306 33661 ft 423 kts 245°
2026-05-07 10:20 47.67680 9.06640 33864 ft 422 kts 245°
2026-05-07 10:20 47.66516 9.02653 34136 ft 421 kts 245°
2026-05-07 10:21 47.65352 8.98672 34349 ft 420 kts 245°
2026-05-07 10:21 47.64241 8.94869 34552 ft 420 kts 245°
2026-05-07 10:21 47.63095 8.90977 34750 ft 420 kts 245°
2026-05-07 10:21 47.61943 8.87059 34939 ft 420 kts 245°
2026-05-07 10:22 47.60773 8.83086 35026 ft 420 kts 245°
2026-05-07 10:22 47.58435 8.75164 35049 ft 419 kts 245°
2026-05-07 10:23 47.56103 8.67264 35052 ft 418 kts 245°
2026-05-07 10:23 47.53784 8.59439 35058 ft 418 kts 245°
2026-05-07 10:24 47.51583 8.52036 35057 ft 418 kts 245°
2026-05-07 10:24 47.49240 8.44175 35061 ft 418 kts 245°
2026-05-07 10:25 47.46888 8.36328 35059 ft 417 kts 245°
2026-05-07 10:25 47.44548 8.28554 35055 ft 417 kts 245°
2026-05-07 10:26 47.42192 8.20722 35048 ft 416 kts 245°
2026-05-07 10:26 47.39829 8.12916 35041 ft 416 kts 244°
2026-05-07 10:27 47.37470 8.05151 35043 ft 416 kts 244°
2026-05-07 10:27 47.35101 7.97357 35037 ft 416 kts 244°
2026-05-07 10:28 47.32725 7.89586 35037 ft 416 kts 244°
2026-05-07 10:28 47.30549 7.82474 35034 ft 416 kts 244°
2026-05-07 10:29 47.28166 7.74700 35028 ft 416 kts 244°
2026-05-07 10:29 47.25777 7.66943 35026 ft 417 kts 244°
2026-05-07 10:30 47.22169 7.55289 35030 ft 417 kts 244°
2026-05-07 10:30 47.19779 7.47582 35027 ft 417 kts 244°
2026-05-07 10:31 47.17366 7.39833 35034 ft 417 kts 243°
2026-05-07 10:31 47.14204 7.32765 35028 ft 415 kts 230°
2026-05-07 10:32 47.10587 7.26162 35028 ft 415 kts 231°
2026-05-07 10:32 47.07007 7.19591 35033 ft 415 kts 231°
2026-05-07 10:33 47.03401 7.12979 35043 ft 415 kts 231°
2026-05-07 10:33 46.99779 7.06359 35032 ft 416 kts 231°
2026-05-07 10:34 46.96161 6.99757 35027 ft 416 kts 231°
2026-05-07 10:34 46.92556 6.93203 35027 ft 416 kts 231°
2026-05-07 10:35 46.88925 6.86613 35023 ft 416 kts 231°
2026-05-07 10:35 46.85292 6.80035 35027 ft 416 kts 231°
2026-05-07 10:36 46.81681 6.73510 35022 ft 416 kts 230°
2026-05-07 10:36 46.78037 6.66945 35027 ft 416 kts 231°
2026-05-07 10:37 46.74391 6.60395 35022 ft 416 kts 230°
2026-05-07 10:37 46.70738 6.53855 35022 ft 416 kts 230°
2026-05-07 10:38 46.67086 6.47319 35023 ft 416 kts 230°
2026-05-07 10:38 46.63454 6.40826 35019 ft 416 kts 230°
2026-05-07 10:39 46.59792 6.34311 35022 ft 416 kts 230°
2026-05-07 10:39 46.56127 6.27807 35016 ft 416 kts 230°
2026-05-07 10:40 46.52489 6.21351 35016 ft 416 kts 230°
2026-05-07 10:40 46.48819 6.14864 35017 ft 416 kts 230°
2026-05-07 10:41 46.45155 6.08397 35017 ft 416 kts 230°
2026-05-07 10:41 46.41477 6.01932 35017 ft 416 kts 230°
2026-05-07 10:42 46.37790 5.95475 35020 ft 416 kts 230°
2026-05-07 10:42 46.34100 5.89019 35017 ft 416 kts 230°
2026-05-07 10:43 46.30439 5.82611 35018 ft 416 kts 230°
2026-05-07 10:43 46.26749 5.76169 35016 ft 416 kts 230°
2026-05-07 10:44 46.24904 5.72950 34832 ft 419 kts 231°
2026-05-07 10:44 46.23344 5.69377 33839 ft 422 kts 247°
2026-05-07 10:44 46.22620 5.65289 32731 ft 422 kts 263°
2026-05-07 10:44 46.22472 5.61042 31668 ft 425 kts 266°
2026-05-07 10:45 46.22385 5.56770 30611 ft 428 kts 266°
2026-05-07 10:45 46.22638 5.52456 29211 ft 446 kts 282°
2026-05-07 10:45 46.23790 5.48241 27754 ft 459 kts 298°
2026-05-07 10:45 46.25778 5.44585 26379 ft 470 kts 315°
2026-05-07 10:46 46.28447 5.41824 25061 ft 477 kts 332°
2026-05-07 10:46 46.31548 5.40077 23825 ft 479 kts 346°
2026-05-07 10:46 46.34776 5.39491 22701 ft 467 kts
2026-05-07 10:46 46.37967 5.40003 21572 ft 458 kts 15°
2026-05-07 10:47 46.40896 5.41673 20487 ft 451 kts 26°
2026-05-07 10:47 46.43679 5.43726 19439 ft 445 kts 30°
2026-05-07 10:47 46.46131 5.46417 18421 ft 444 kts 45°
2026-05-07 10:47 46.48013 5.49970 17379 ft 448 kts 61°
2026-05-07 10:48 46.49310 5.54089 16515 ft 448 kts 68°
2026-05-07 10:48 46.50510 5.58235 15868 ft 443 kts 68°
2026-05-07 10:48 46.51691 5.62333 15194 ft 439 kts 68°
2026-05-07 10:48 46.52861 5.66402 14596 ft 434 kts 68°
2026-05-07 10:49 46.54000 5.70375 14023 ft 430 kts 68°
2026-05-07 10:49 46.55142 5.74364 13398 ft 426 kts 68°
2026-05-07 10:49 46.56273 5.78315 12753 ft 421 kts 68°
2026-05-07 10:49 46.57390 5.82214 12133 ft 416 kts 68°
2026-05-07 10:50 46.58498 5.86087 11325 ft 415 kts 68°
2026-05-07 10:50 46.59599 5.89979 10511 ft 416 kts 70°
2026-05-07 10:50 46.60323 5.94012 9855 ft 410 kts 80°
2026-05-07 10:50 46.60482 5.98049 9253 ft 402 kts 96°
2026-05-07 10:51 46.59932 6.01940 9010 ft 385 kts 106°
2026-05-07 10:51 46.59270 6.05648 9016 ft 376 kts 106°
2026-05-07 10:51 46.58617 6.09298 8740 ft 370 kts 106°
2026-05-07 10:51 46.57963 6.12849 8259 ft 354 kts 109°
2026-05-07 10:52 46.57032 6.16029 7822 ft 332 kts 119°
2026-05-07 10:52 46.56013 6.18932 7556 ft 313 kts 119°
2026-05-07 10:52 46.55057 6.21672 7298 ft 299 kts 120°
2026-05-07 10:52 46.54070 6.24243 7048 ft 289 kts 131°
2026-05-07 10:53 46.52762 6.26360 6801 ft 276 kts 137°
2026-05-07 10:53 46.51455 6.28292 6558 ft 260 kts 140°
2026-05-07 10:53 46.50006 6.29712 6318 ft 247 kts 162°
2026-05-07 10:53 46.48361 6.30190 6185 ft 238 kts 183°
2026-05-07 10:54 46.46736 6.30174 6053 ft 231 kts 185°
2026-05-07 10:54 46.45151 6.30155 5918 ft 224 kts 184°
2026-05-07 10:54 46.43617 6.30138 5792 ft 217 kts 184°
2026-05-07 10:54 46.42136 6.30028 5600 ft 210 kts 197°
2026-05-07 10:55 46.40778 6.29441 5365 ft 203 kts 200°
2026-05-07 10:55 46.39472 6.28855 5238 ft 190 kts 200°
2026-05-07 10:55 46.38230 6.28297 5052 ft 185 kts 200°
2026-05-07 10:55 46.36988 6.27735 4661 ft 188 kts 201°
2026-05-07 10:56 46.35738 6.27168 4343 ft 187 kts 200°
2026-05-07 10:56 46.34545 6.26508 4141 ft 179 kts 214°
2026-05-07 10:56 46.33637 6.25383 3981 ft 170 kts 226°
2026-05-07 10:56 46.32832 6.24193 3758 ft 158 kts 227°
2026-05-07 10:57 46.32087 6.23092 3555 ft 148 kts 226°
2026-05-07 10:57 46.31371 6.22034 3354 ft 146 kts 226°
2026-05-07 10:57 46.30660 6.20985 3148 ft 145 kts 226°
2026-05-07 10:57 46.29955 6.19947 2924 ft 145 kts 226°
2026-05-07 10:58 46.29241 6.18894 2686 ft 148 kts 226°
2026-05-07 10:58 46.28521 6.17833 2450 ft 148 kts 226°
2026-05-07 10:58 46.27798 6.16768 2210 ft 152 kts 226°
2026-05-07 10:58 46.27048 6.15665 1996 ft 155 kts 226°
2026-05-07 10:59 46.26291 6.14550 1784 ft 155 kts 224°
2026-05-07 10:59 46.25528 6.13431 1535 ft 157 kts 224°
2026-05-07 10:59 46.24773 6.12314 1383 ft 150 kts 223°
2026-05-07 10:59 46.24202 6.11475 1402 ft 76 kts 226°
2026-05-07 11:00 46.23969 6.11126 1405 ft 19 kts 226°
2026-05-07 11:00 46.23859 6.11069 1398 ft 18 kts 183°
2026-05-07 11:00 46.23769 6.11091 1400 ft 15 kts 149°
2026-05-07 11:00 46.23696 6.11153 1401 ft 7 kts 136°
2026-05-07 11:01 46.23685 6.11173 1395 ft 0 kts 135°